一网星座-0334星 (ONEWEB-0334 )

导读

ONEWEB-0334是英国一网公司(OneWeb)旗下低轨宽带卫星星座的组成卫星,于2021年9月14日发射入轨,归属一网一期星座组网单元。OneWeb星座计划构建全球卫星宽带网络,主要面向偏远地区提供接入服务,同时为航空、海运提供互联网连接,也会向电信运营商出售带宽。该卫星已成为OneWeb完成全球覆盖建设进程中的重要组成部分,助力公司抢占太空宽带市场。

基本信息
目录编号:
49200
目录名称:
ONEWEB-0334
国际标识:
2021-083Q
轨道中心:
EARTH
卫星名称:
一网星座-0334星
卫星全名:
一网星座-0334星 (ONEWEB-0334 )
卫星状态:
在轨 (已飞行1734 天)
发射日期:
2021-09-14 UTC
国别 :
英国 (GB)
星等 :
--
轨道信息
数据来源 国际轨道数据 AOE轨道数据
星历时间 2026-06-14T03:25:12+0800
16小时前
查看轨道信息
2026-06-11T10:00:00+0800
3天前
查看轨道信息
半长轴 7558.761km 7559.907km
偏心率 0.0001138 0.0001339
轨道倾角 87.919° 87.918°
近地点辐角 123.635° 121.570°
升交点赤经 275.120° 275.662°
平近点角 236.489° 242.920°
近地点 1179.763km 1180.757km
远地点 1181.485km 1182.783km
周期 109.002分钟 109.027分钟
每日圈数 13.210733 13.207728
详细信息
平衡模式:
三轴稳定
覆盖范围:
全球
运营商:
一网卫星公司
运营商所在国:
英国
制造商(研发单位):
一网卫星公司
制造商所在国:
英国
使用方式:
暂无
卫星简介
OneWeb卫星网络由648颗重约125公斤的微型卫星组成,运行在1200公里的轨道上。 每颗卫星都能够提供至少每秒8千兆位的吞吐量,以使用其高吞吐量的Ku频段有效载荷为家庭和移动平台提供互联网接入。该卫星仍在工作。
2D轨道图
3D轨道图
轨道高度分析图
轨道倾角分析图
轨道综合分析图
查看轨道综合分析图